Weather History for Dodge City, KS

Change the Weather History Date:

Saturday, March 29, 2014

  Actual Average Record
Temperature  
Mean Temperature 46 °F -  
Max Temperature 70 °F 56 °F 88 °F (1943)
Min Temperature 21 °F 34 °F 13 °F (1987)
Degree Days  
Heating Degree Days 20    
Moisture  
Dew Point 22 °F    
Average Humidity 45    
Maximum Humidity 89    
Minimum Humidity 7    
Precipitation  
Precipitation 0.00 in - - ()
Sea Level Pressure  
Sea Level Pressure 30.19 in    
Wind  
Wind Speed 11 mph (SSW)    
Max Wind Speed 22 mph    
Max Gust Speed 31 mph    
Visibility 9 miles    
Events      
Averages and records for this station are not official NWS values.
T = Trace of Precipitation, MM = Missing Value Source: NWS Daily Summary

Daily Weather History Graph

Daily Weather History Graph

Search for Another Location

Airport:

Trip Planner

Search our weather history database for the weather conditions in past years. The results will help you decide how hot, cold, wet, or windy it might be!

Date:

Astronomy

Mar. 29, 2014 Rise Set
Actual Time 7:29 AM CDT 8:00 PM CDT
Civil Twilight 7:03 AM CDT 8:26 PM CDT
Nautical Twilight 6:32 AM CDT 8:57 PM CDT
Astronomical Twilight 6:00 AM CDT 9:29 PM CDT
Moon 6:38 AM CDT (3/29) 7:07 PM CDT (3/29)
Length of Visible Light 13h 23m
Length of Day
12h 30m
Waning Crescent, 2% of the Moon is Illuminated
Mar 29
Waning Crescent
Mar 30
New
Apr 7
First Quarter
Apr 15
Full
Apr 22
Last Quarter

Hourly Weather History & Observations

Time (CDT) Temp. Windchill Dew Point Humidity Pressure Visibility Wind Dir Wind Speed Gust Speed Precip Events Conditions
12:52 AM 34.0 °F 26.0 °F 21.9 °F 61% 30.22 in 10.0 mi North 10.4 mph - N/A   Clear
1:52 AM 33.1 °F 26.1 °F 21.9 °F 64% 30.22 in 10.0 mi North 8.1 mph - N/A   Clear
2:52 AM 32.0 °F 24.2 °F 23.0 °F 69% 30.23 in 10.0 mi North 9.2 mph - N/A   Clear
3:52 AM 28.0 °F 19.3 °F 21.9 °F 78% 30.24 in 10.0 mi North 9.2 mph - N/A   Clear
4:52 AM 27.0 °F 16.7 °F 21.9 °F 81% 30.25 in 10.0 mi North 11.5 mph - N/A   Clear
5:52 AM 25.0 °F 17.1 °F 21.0 °F 85% 30.27 in 8.0 mi NNW 6.9 mph - N/A   Clear
6:52 AM 21.9 °F 13.4 °F 19.0 °F 89% 30.30 in 5.0 mi North 6.9 mph - N/A   Clear
7:52 AM 23.0 °F 18.4 °F 19.9 °F 88% 30.32 in 5.0 mi WNW 3.5 mph - N/A   Clear
8:52 AM 32.0 °F 26.4 °F 27.0 °F 82% 30.33 in 6.0 mi West 5.8 mph - N/A   Haze
9:52 AM 39.0 °F 36.8 °F 28.9 °F 67% 30.32 in 7.0 mi North 3.5 mph - N/A   Clear
10:52 AM 46.9 °F - 28.9 °F 50% 30.31 in 8.0 mi South 6.9 mph - N/A   Clear
11:52 AM 57.0 °F - 24.1 °F 28% 30.28 in 10.0 mi South 13.8 mph - N/A   Clear
12:52 PM 62.1 °F - 21.9 °F 21% 30.24 in 10.0 mi SSW 15.0 mph - N/A   Clear
1:52 PM 63.0 °F - 19.9 °F 19% 30.21 in 10.0 mi SSW 15.0 mph 25.3 mph N/A   Clear
2:52 PM 66.0 °F - 19.0 °F 17% 30.17 in 10.0 mi South 20.7 mph 27.6 mph N/A   Clear
3:52 PM 68.0 °F - 18.0 °F 15% 30.14 in 10.0 mi SSW 19.6 mph 27.6 mph N/A   Clear
4:52 PM 69.1 °F - 19.9 °F 15% 30.10 in 10.0 mi South 19.6 mph 31.1 mph N/A   Clear
5:52 PM 69.1 °F - 19.9 °F 15% 30.07 in 10.0 mi SSW 21.9 mph 31.1 mph N/A   Clear
6:52 PM 66.9 °F - 21.9 °F 18% 30.06 in 10.0 mi South 19.6 mph 27.6 mph N/A   Clear
7:52 PM 62.1 °F - 23.0 °F 22% 30.06 in 10.0 mi South 15.0 mph - N/A   Clear
8:52 PM 55.0 °F - 24.1 °F 30% 30.06 in 10.0 mi SSE 12.7 mph - N/A   Clear
9:52 PM 52.0 °F - 24.1 °F 34% 30.07 in 10.0 mi SSE 15.0 mph - N/A   Clear
10:52 PM 50.0 °F - 24.1 °F 36% 30.06 in 10.0 mi SSE 16.1 mph - N/A   Clear
11:52 PM 50.0 °F - 25.0 °F 38% 30.03 in 10.0 mi SSE 19.6 mph - N/A   Clear